When you browse on this site, cookies collect data to enhance your experience and personalize the content and advertising you see.
Visit our Privacy Policy to learn more. By continuing to use the site, you agree to this use of cookies and data.
  • Em Portugal
  • Lista de países
  • Para 7 dias
  • Temperatura da água
  • Mapas de satélite
  • Mapa do tempo
  • Widgets de tempo
  • user-avatar
    Iniciar Sessão

    Previsão horária em Dobropole

    Hoje, 25 Maio, Sábado

    Tempo Temperatura Precipitação Vento Pressão Humidade
    00:00 +16°C° 0 mm 2 m/s 741 mmHg 88%
    01:00 +16°C° 0 mm 2 m/s 741 mmHg 87%
    02:00 +16°C° 0 mm 2 m/s 741 mmHg 87%
    03:00 +16°C° 0 mm 2 m/s 741 mmHg 86%
    04:00 +16°C° 0 mm 2 m/s 741 mmHg 84%
    05:00 +16°C° 0 mm 2 m/s 741 mmHg 83%
    06:00 +17°C° 0.1 mm 2 m/s 741 mmHg 77%
    07:00 +19°C° 0.1 mm 2 m/s 741 mmHg 71%
    08:00 +21°C° 0.1 mm 2 m/s 741 mmHg 66%
    09:00 +23°C° 0.5 mm 2 m/s 741 mmHg 63%
    10:00 +24°C° 0.5 mm 3 m/s 741 mmHg 60%
    11:00 +25°C° 0.5 mm 3 m/s 740 mmHg 57%
    12:00 +25°C° 0.6 mm 4 m/s 740 mmHg 59%
    13:00 +23°C° 0.6 mm 4 m/s 740 mmHg 60%
    14:00 +23°C° 0.6 mm 4 m/s 740 mmHg 62%
    15:00 +24°C° 0.6 mm 3 m/s 740 mmHg 66%
    16:00 +22°C° 0.6 mm 3 m/s 740 mmHg 70%
    17:00 +23°C° 0.6 mm 2 m/s 739 mmHg 74%
    18:00 +21°C° 0.4 mm 2 m/s 739 mmHg 78%
    19:00 +20°C° 0.4 mm 2 m/s 739 mmHg 81%
    20:00 +19°C° 0.4 mm 2 m/s 739 mmHg 85%
    21:00 +18°C° 0.1 mm 2 m/s 739 mmHg 85%
    22:00 +18°C° 0.1 mm 2 m/s 739 mmHg 86%
    23:00 +17°C° 0.1 mm 2 m/s 739 mmHg 87%

    Amanhã, 26 Maio, Domingo

    Tempo Temperatura Precipitação Vento Pressão Humidade
    00:00 +17°C° 0 mm 2 m/s 739 mmHg 88%
    01:00 +17°C° 0 mm 3 m/s 739 mmHg 89%
    02:00 +16°C° 0 mm 3 m/s 739 mmHg 90%
    03:00 +16°C° 0.3 mm 3 m/s 739 mmHg 91%
    04:00 +16°C° 0.3 mm 3 m/s 739 mmHg 92%
    05:00 +16°C° 0.3 mm 3 m/s 739 mmHg 92%
    06:00 +17°C° 0.3 mm 4 m/s 740 mmHg 89%
    07:00 +18°C° 0.3 mm 4 m/s 740 mmHg 85%
    08:00 +19°C° 0.3 mm 5 m/s 740 mmHg 81%
    09:00 +20°C° 0.8 mm 5 m/s 740 mmHg 78%
    10:00 +21°C° 0.8 mm 5 m/s 740 mmHg 74%
    11:00 +22°C° 0.8 mm 4 m/s 740 mmHg 71%
    12:00 +23°C° 0.9 mm 4 m/s 740 mmHg 69%
    13:00 +23°C° 0.9 mm 4 m/s 740 mmHg 67%
    14:00 +23°C° 0.9 mm 4 m/s 740 mmHg 65%
    15:00 +23°C° 0.3 mm 5 m/s 740 mmHg 67%
    16:00 +22°C° 0.3 mm 5 m/s 740 mmHg 70%
    17:00 +22°C° 0.3 mm 5 m/s 740 mmHg 73%
    18:00 +21°C° 0 mm 5 m/s 741 mmHg 78%
    19:00 +19°C° 0 mm 4 m/s 741 mmHg 82%
    20:00 +18°C° 0 mm 4 m/s 742 mmHg 87%
    21:00 +18°C° 0 mm 4 m/s 742 mmHg 89%
    22:00 +17°C° 0 mm 4 m/s 743 mmHg 90%
    23:00 +17°C° 0 mm 3 m/s 743 mmHg 92%

    Depois de amanhã, 27 Maio, Segunda-feira

    Tempo Temperatura Precipitação Vento Pressão Humidade
    00:00 +16°C° 0 mm 3 m/s 744 mmHg 93%
    01:00 +16°C° 0 mm 3 m/s 744 mmHg 93%
    02:00 +14°C° 0 mm 3 m/s 745 mmHg 94%
    03:00 +16°C° 0 mm 3 m/s 745 mmHg 93%
    04:00 +16°C° 0 mm 3 m/s 746 mmHg 92%
    05:00 +16°C° 0 mm 2 m/s 746 mmHg 91%
    06:00 +18°C° 0 mm 2 m/s 747 mmHg 82%
    07:00 +19°C° 0 mm 2 m/s 747 mmHg 73%
    08:00 +21°C° 0 mm 2 m/s 748 mmHg 64%
    09:00 +23°C° 0 mm 2 m/s 748 mmHg 60%
    10:00 +24°C° 0 mm 2 m/s 748 mmHg 56%
    11:00 +25°C° 0 mm 2 m/s 748 mmHg 52%
    12:00 +25°C° 0 mm 2 m/s 748 mmHg 54%
    13:00 +25°C° 0 mm 3 m/s 748 mmHg 55%
    14:00 +25°C° 0 mm 3 m/s 748 mmHg 57%
    15:00 +26°C° 0 mm 3 m/s 748 mmHg 57%
    16:00 +26°C° 0 mm 3 m/s 748 mmHg 58%
    17:00 +26°C° 0 mm 3 m/s 748 mmHg 58%
    18:00 +24°C° 0 mm 2 m/s 748 mmHg 63%
    19:00 +23°C° 0 mm 2 m/s 749 mmHg 67%
    20:00 +21°C° 0 mm 1 m/s 749 mmHg 72%
    21:00 +20°C° 0 mm 1 m/s 749 mmHg 74%
    22:00 +20°C° 0 mm 1 m/s 749 mmHg 75%
    23:00 +19°C° 0 mm 1 m/s 749 mmHg 76%

    28 Maio, Terça-feira

    Tempo Temperatura Precipitação Vento Pressão Humidade
    00:00 +18°C° 0 mm 2 m/s 749 mmHg 77%
    01:00 +18°C° 0 mm 2 m/s 749 mmHg 77%
    02:00 +17°C° 0 mm 2 m/s 749 mmHg 78%
    03:00 +17°C° 0 mm 2 m/s 749 mmHg 79%
    04:00 +18°C° 0 mm 2 m/s 750 mmHg 80%
    05:00 +18°C° 0 mm 2 m/s 750 mmHg 82%
    06:00 +20°C° 0 mm 2 m/s 750 mmHg 75%
    07:00 +23°C° 0 mm 2 m/s 750 mmHg 69%
    08:00 +25°C° 0 mm 2 m/s 750 mmHg 63%
    09:00 +26°C° 0 mm 2 m/s 750 mmHg 59%
    10:00 +27°C° 0 mm 2 m/s 750 mmHg 54%
    11:00 +28°C° 0 mm 3 m/s 750 mmHg 50%
    12:00 +28°C° 0 mm 3 m/s 750 mmHg 49%
    13:00 +29°C° 0 mm 3 m/s 750 mmHg 48%
    14:00 +29°C° 0 mm 3 m/s 750 mmHg 47%
    15:00 +29°C° 0 mm 3 m/s 750 mmHg 51%
    16:00 +29°C° 0 mm 3 m/s 749 mmHg 54%
    17:00 +28°C° 0 mm 3 m/s 749 mmHg 58%
    18:00 +26°C° 0 mm 3 m/s 749 mmHg 64%
    19:00 +24°C° 0 mm 3 m/s 749 mmHg 70%
    20:00 +21°C° 0 mm 3 m/s 749 mmHg 76%
    21:00 +20°C° 0 mm 3 m/s 749 mmHg 77%
    22:00 +19°C° 0 mm 2 m/s 749 mmHg 77%
    23:00 +19°C° 0 mm 2 m/s 749 mmHg 77%

    29 Maio, Quarta-feira

    Tempo Temperatura Precipitação Vento Pressão Humidade
    00:00 +18°C° 0 mm 2 m/s 749 mmHg 78%
    01:00 +18°C° 0 mm 2 m/s 749 mmHg 78%
    02:00 +18°C° 0 mm 2 m/s 749 mmHg 79%
    03:00 +18°C° 0 mm 2 m/s 749 mmHg 79%
    04:00 +19°C° 0 mm 2 m/s 749 mmHg 80%
    05:00 +19°C° 0 mm 2 m/s 750 mmHg 81%
    06:00 +21°C° 0 mm 3 m/s 750 mmHg 75%
    07:00 +23°C° 0 mm 4 m/s 750 mmHg 69%
    08:00 +26°C° 0 mm 4 m/s 750 mmHg 63%
    09:00 +27°C° 0 mm 5 m/s 749 mmHg 60%
    10:00 +28°C° 0 mm 5 m/s 749 mmHg 57%
    11:00 +29°C° 0 mm 6 m/s 749 mmHg 54%
    12:00 +29°C° 0 mm 5 m/s 749 mmHg 54%
    13:00 +29°C° 0 mm 5 m/s 749 mmHg 53%
    14:00 +30°C° 0 mm 5 m/s 748 mmHg 52%
    15:00 +29°C° 0 mm 5 m/s 748 mmHg 55%
    16:00 +29°C° 0 mm 4 m/s 748 mmHg 57%
    17:00 +28°C° 0 mm 3 m/s 748 mmHg 60%
    18:00 +27°C° 0 mm 3 m/s 748 mmHg 65%
    19:00 +25°C° 0 mm 3 m/s 748 mmHg 69%
    20:00 +22°C° 0 mm 3 m/s 748 mmHg 74%
    21:00 +21°C° 0 mm 3 m/s 748 mmHg 75%
    22:00 +20°C° 0 mm 2 m/s 748 mmHg 77%
    23:00 +20°C° 0 mm 2 m/s 748 mmHg 78%

    30 Maio, Quinta-feira

    Tempo Temperatura Precipitação Vento Pressão Humidade
    00:00 +19°C° 0 mm 2 m/s 748 mmHg 80%
    01:00 +19°C° 0 mm 2 m/s 748 mmHg 81%
    02:00 +19°C° 0 mm 2 m/s 748 mmHg 83%
    03:00 +19°C° 0 mm 2 m/s 748 mmHg 82%
    04:00 +19°C° 0 mm 2 m/s 748 mmHg 82%
    05:00 +19°C° 0 mm 3 m/s 748 mmHg 81%
    06:00 +21°C° 0 mm 3 m/s 748 mmHg 74%
    07:00 +24°C° 0 mm 3 m/s 748 mmHg 67%
    08:00 +26°C° 0 mm 4 m/s 748 mmHg 59%
    09:00 +27°C° 0 mm 4 m/s 748 mmHg 55%
    10:00 +28°C° 0 mm 4 m/s 748 mmHg 50%
    11:00 +30°C° 0 mm 4 m/s 748 mmHg 45%
    12:00 +30°C° 0 mm 4 m/s 747 mmHg 44%
    13:00 +30°C° 0 mm 3 m/s 747 mmHg 42%
    14:00 +31°C° 0 mm 3 m/s 747 mmHg 41%
    15:00 +31°C° 0 mm 3 m/s 747 mmHg 44%
    16:00 +30°C° 0 mm 2 m/s 747 mmHg 46%
    17:00 +30°C° 0 mm 2 m/s 747 mmHg 49%
    18:00 +28°C° 0 mm 1 m/s 747 mmHg 53%
    19:00 +26°C° 0 mm 1 m/s 747 mmHg 58%
    20:00 +24°C° 0 mm 1 m/s 747 mmHg 62%
    21:00 +23°C° 0 mm 1 m/s 747 mmHg 63%
    22:00 +23°C° 0 mm 1 m/s 747 mmHg 65%
    23:00 +20°C° 0 mm 0 m/s 747 mmHg 67%
    Mostrar mais